VSP1087 SBJP-SBMO

Flight info

Callsign VSP1087
Flight time N/A
Altitude 22000
Route 071552S0344811W DCT 075630S0344909W 085136S0350722W DCT 092508S0353007W
Aircraft B738/M-SDE2E3FGHIRWXY/LB1

Departure

Time N/A
Airport Presidente Castro Pinto International Airport (SBJP)

Arrival

Time 2026-05-01 14:22
Airport Zumbi dos Palmares International Airport (SBMO)
Time Latitude Longitude Altitude Speed Heading
2026-05-01 14:09 -9.40642 -35.64554 10211 ft 299 kts 273°
2026-05-01 14:10 -9.40465 -35.66578 9983 ft 289 kts 273°
2026-05-01 14:10 -9.40299 -35.68487 9653 ft 287 kts 273°
2026-05-01 14:10 -9.40109 -35.70666 9254 ft 287 kts 273°
2026-05-01 14:10 -9.39951 -35.72478 8934 ft 286 kts 273°
2026-05-01 14:11 -9.39542 -35.77174 8112 ft 284 kts 273°
2026-05-01 14:11 -9.39376 -35.79082 7777 ft 284 kts 273°
2026-05-01 14:12 -9.39213 -35.80934 7452 ft 283 kts 273°
2026-05-01 14:12 -9.39039 -35.82921 7118 ft 273 kts 273°
2026-05-01 14:12 -9.38880 -35.84768 6756 ft 261 kts 273°
2026-05-01 14:12 -9.38727 -35.86569 6449 ft 249 kts 273°
2026-05-01 14:13 -9.38579 -35.88258 6156 ft 239 kts 273°
2026-05-01 14:13 -9.38485 -35.89371 5962 ft 233 kts 273°
2026-05-01 14:13 -9.38303 -35.91462 5637 ft 216 kts 273°
2026-05-01 14:13 -9.38167 -35.92939 5314 ft 206 kts 273°
2026-05-01 14:14 -9.38044 -35.94333 5057 ft 195 kts 273°
2026-05-01 14:14 -9.37951 -35.95655 4839 ft 187 kts 267°
2026-05-01 14:14 -9.38131 -35.96935 4527 ft 189 kts 250°
2026-05-01 14:14 -9.38697 -35.98098 4184 ft 185 kts 231°
2026-05-01 14:15 -9.39576 -35.98992 3874 ft 178 kts 212°
2026-05-01 14:15 -9.40686 -35.99527 3317 ft 183 kts 191°
2026-05-01 14:15 -9.41944 -35.99595 2854 ft 179 kts 170°
2026-05-01 14:15 -9.43124 -35.99393 2646 ft 160 kts 167°
2026-05-01 14:16 -9.44167 -35.99172 2540 ft 151 kts 167°
2026-05-01 14:16 -9.45189 -35.98991 2450 ft 149 kts 169°
2026-05-01 14:16 -9.46206 -35.98759 2368 ft 148 kts 158°
2026-05-01 14:16 -9.47075 -35.98234 2274 ft 147 kts 142°
2026-05-01 14:17 -9.47783 -35.97513 2207 ft 146 kts 115°
2026-05-01 14:17 -9.48025 -35.96509 2244 ft 147 kts 97°
2026-05-01 14:17 -9.48127 -35.95473 2267 ft 149 kts 97°
2026-05-01 14:17 -9.48259 -35.94433 2255 ft 148 kts 99°
2026-05-01 14:18 -9.48422 -35.93396 2247 ft 148 kts 101°
2026-05-01 14:18 -9.48602 -35.92379 2249 ft 148 kts 102°
2026-05-01 14:18 -9.48789 -35.91356 2247 ft 148 kts 102°
2026-05-01 14:18 -9.48919 -35.90656 2247 ft 148 kts 103°
2026-05-01 14:19 -9.49183 -35.89262 2159 ft 153 kts 104°
2026-05-01 14:19 -9.49382 -35.88216 1980 ft 156 kts 102°
2026-05-01 14:19 -9.49581 -35.87146 1768 ft 157 kts 103°
2026-05-01 14:19 -9.49785 -35.86068 1550 ft 154 kts 102°
2026-05-01 14:20 -9.49986 -35.85019 1315 ft 153 kts 102°
2026-05-01 14:20 -9.50389 -35.82935 843 ft 151 kts 101°
2026-05-01 14:20 -9.50571 -35.81887 681 ft 150 kts 100°
2026-05-01 14:21 -9.50751 -35.80910 561 ft 149 kts 102°
2026-05-01 14:21 -9.50949 -35.79900 423 ft 148 kts 101°
2026-05-01 14:21 -9.51132 -35.78957 397 ft 103 kts 99°
2026-05-01 14:22 -9.51207 -35.78399 396 ft 7 kts 33°
2026-05-01 14:22 -9.51160 -35.78386 396 ft 6 kts 10°
2026-05-01 14:22 -9.51117 -35.78377 396 ft 5 kts 13°
2026-05-01 14:22 -9.51093 -35.78363 396 ft 2 kts 27°
2026-05-01 14:23 -9.51075 -35.78371 396 ft 3 kts 300°
2026-05-01 14:23 -9.51076 -35.78383 396 ft 1 kts 242°
2026-05-01 14:23 -9.51085 -35.78388 396 ft 0 kts 192°
2026-05-01 14:23 -9.51097 -35.78387 396 ft 4 kts 173°
2026-05-01 14:24 -9.51131 -35.78384 396 ft 5 kts 177°
2026-05-01 14:24 -9.51175 -35.78390 396 ft 7 kts 190°
2026-05-01 14:24 -9.51209 -35.78408 396 ft 5 kts 242°
2026-05-01 14:24 -9.51216 -35.78450 396 ft 8 kts 275°
2026-05-01 14:25 -9.51207 -35.78513 396 ft 8 kts 285°
2026-05-01 14:25 -9.51194 -35.78571 396 ft 9 kts 283°
2026-05-01 14:25 -9.51181 -35.78634 396 ft 8 kts 280°
2026-05-01 14:25 -9.51170 -35.78696 396 ft 9 kts 280°
2026-05-01 14:26 -9.51159 -35.78759 396 ft 8 kts 280°
2026-05-01 14:26 -9.51140 -35.78876 396 ft 5 kts 256°
2026-05-01 14:26 -9.51161 -35.78902 396 ft 4 kts 201°
2026-05-01 14:27 -9.51182 -35.78901 396 ft 4 kts 161°
2026-05-01 14:27 -9.51199 -35.78892 396 ft 4 kts 141°
2026-05-01 14:27 -9.51223 -35.78868 396 ft 5 kts 135°
2026-05-01 14:28 -9.51284 -35.78834 396 ft 5 kts 223°
2026-05-01 14:28 -9.51298 -35.78869 396 ft 5 kts 265°
2026-05-01 14:28 -9.51293 -35.78909 396 ft 6 kts 281°
2026-05-01 14:28 -9.51286 -35.78954 396 ft 6 kts 274°
2026-05-01 14:29 -9.51303 -35.78998 396 ft 7 kts 228°
2026-05-01 14:29 -9.51340 -35.79027 396 ft 6 kts 221°
2026-05-01 14:30 -9.51350 -35.79134 396 ft 3 kts 264°
2026-05-01 14:30 -9.51362 -35.79150 396 ft 2 kts 213°
2026-05-01 14:30 -9.51382 -35.79157 396 ft 3 kts 193°
2026-05-01 14:31 -9.51407 -35.79163 396 ft 0 kts 191°
2026-05-01 14:32 -9.51411 -35.79164 396 ft 0 kts 190°